FW7071 Weather Reports


time (UTC)temp
C
wind
direction
speed
KPH
gust
KPH
rain 1hr
cm
rain 24hr
cm
rain mn
cm
humidity
%
barometer
mb
20260510093430 10 236 0.0 0.0 0.00 0.03 0.03 99 1013.0
20260510092927 10 237 1.6 1.6 0.00 0.03 0.03 99 1013.2
20260510092419 10 117 1.6 3.2 0.00 0.03 0.03 99 1013.0
20260510091918 10 147 0.0 0.0 0.00 0.03 0.03 99 1013.0
20260510091416 10 134 0.0 0.0 0.00 0.03 0.03 99 1013.0
20260510090912 10 143 0.0 0.0 0.00 0.03 0.03 99 1012.7
20260510090409 10 129 1.6 1.6 0.00 0.03 0.03 99 1012.9
20260510085905 10 140 0.0 0.0 0.00 0.03 0.03 99 1012.6
20260510085400 10 124 0.0 0.0 0.00 0.03 0.03 99 1012.8
20260510084855 10 96 0.0 0.0 0.00 0.03 0.03 99 1013.1
20260510084353 10 142 0.0 1.6 0.00 0.03 0.03 99 1013.2
20260510083849 10 159 0.0 0.0 0.00 0.03 0.03 99 1013.1
20260510083340 10 160 0.0 0.0 0.00 0.03 0.03 99 1013.3
20260510082836 10 165 0.0 0.0 0.00 0.03 0.03 99 1013.2
20260510082333 10 138 0.0 0.0 0.00 0.03 0.03 99 1013.2
20260510081832 10 177 0.0 0.0 0.00 0.03 0.03 99 1013.2
20260510081328 10 229 0.0 0.0 0.00 0.03 0.03 99 1013.3
20260510080824 10 258 0.0 0.0 0.00 0.03 0.03 99 1013.5
20260510080319 10 152 0.0 0.0 0.00 0.03 0.03 99 1013.1
20260510075817 10 264 0.0 1.6 0.00 0.03 0.03 99 1013.1
20260510075314 10 196 0.0 0.0 0.00 0.03 0.03 99 1013.2
20260510074811 10 162 0.0 0.0 0.00 0.03 0.03 99 1012.7
20260510074308 10 254 0.0 1.6 0.00 0.03 0.03 99 1013.5
20260510073803 10 166 1.6 1.6 0.00 0.03 0.03 99 1012.8
20260510073300 10 287 4.8 4.8 0.00 0.03 0.03 99 1012.7
20260510072755 10 129 0.0 0.0 0.00 0.03 0.03 99 1012.5
20260510072252 10 137 0.0 0.0 0.00 0.03 0.03 99 1012.4
20260510071748 10 140 0.0 0.0 0.00 0.03 0.03 99 1012.4
20260510071245 10 143 0.0 0.0 0.00 0.03 0.03 99 1012.6
20260510070744 10 139 0.0 0.0 0.00 0.03 0.03 99 1012.2
20260510070241 10 147 0.0 0.0 0.00 0.03 0.03 99 1012.6
20260510065735 10 169 0.0 0.0 0.00 0.03 0.03 99 1012.5
20260510065232 10 169 0.0 0.0 0.00 0.03 0.03 99 1012.4
20260510064728 10 154 0.0 0.0 0.00 0.03 0.03 99 1012.5
20260510064226 10 172 0.0 0.0 0.00 0.03 0.03 99 1012.8
20260510063722 10 171 0.0 0.0 0.13 0.03 0.03 99 1012.7
20260510063219 10 155 0.0 0.0 0.13 0.03 0.03 99 1012.7
20260510062715 10 272 0.0 0.0 0.00 0.00 0.00 99 1012.7
20260510062212 10 281 0.0 1.6 0.00 0.00 0.00 99 1012.7
20260510061707 10 173 0.0 0.0 0.00 0.00 0.00 99 1012.4
20260510061204 10 122 0.0 0.0 0.00 0.00 0.00 99 1012.6
20260510060701 9 84 0.0 0.0 0.00 0.00 0.00 99 1012.4
20260510060157 9 82 0.0 0.0 0.00 0.00 0.00 99 1012.3
20260510055653 9 77 0.0 1.6 0.00 0.00 0.00 99 1012.4
20260510055152 10 74 0.0 0.0 0.00 0.00 0.00 99 1012.1
20260510054647 10 78 0.0 0.0 0.00 0.00 0.00 99 1012.2
20260510054143 10 82 0.0 0.0 0.00 0.00 0.00 99 1012.5
20260510053642 10 81 0.0 0.0 0.00 0.00 0.00 99 1012.4
20260510053139 10 77 0.0 0.0 0.00 0.00 0.00 99 1012.5
20260510052635 10 82 0.0 0.0 0.00 0.00 0.00 99 1012.5
20260510052131 10 80 0.0 0.0 0.00 0.00 0.00 99 1012.4
20260510051627 10 81 0.0 0.0 0.00 0.00 0.00 99 1012.5
20260510051124 10 82 0.0 1.6 0.00 0.00 0.00 99 1012.4
20260510050621 10 76 0.0 0.0 0.00 0.00 0.00 99 1012.5
20260510050118 10 60 0.0 1.6 0.00 0.00 0.00 99 1012.7
20260510045615 10 73 0.0 0.0 0.00 0.00 0.00 99 1012.6
20260510045111 10 86 0.0 0.0 0.00 0.00 0.00 99 1012.6
20260510044608 10 82 0.0 0.0 0.00 0.00 0.00 99 1012.7
20260510044105 10 86 0.0 0.0 0.00 0.00 0.00 99 1012.7
20260510043600 10 86 0.0 0.0 0.00 0.00 0.00 99 1012.6
20260510043057 9 86 0.0 0.0 0.00 0.00 0.00 99 1012.6
20260510042555 9 86 0.0 0.0 0.00 0.00 0.00 99 1012.6
20260510042051 9 87 0.0 0.0 0.00 0.00 0.00 99 1012.7
20260510041548 9 86 0.0 0.0 0.00 0.00 0.00 99 1012.6
20260510041045 9 86 0.0 0.0 0.00 0.00 0.00 99 1012.9
20260510040542 9 86 0.0 0.0 0.00 0.00 0.00 99 1012.8
20260510040038 10 86 0.0 0.0 0.00 0.64 0.64 99 1012.6
20260510035534 10 86 0.0 0.0 0.00 0.64 0.64 99 1012.7
20260510035034 10 86 0.0 0.0 0.00 0.64 0.64 99 1012.8
20260510034533 10 86 0.0 0.0 0.00 0.64 0.64 99 1012.6
20260510034029 10 86 0.0 0.0 0.00 0.64 0.64 99 1012.7
20260510033525 10 86 0.0 0.0 0.00 0.64 0.64 99 1012.7
20260510033023 10 87 0.0 0.0 0.00 0.64 0.64 99 1012.6
20260510032519 10 86 0.0 0.0 0.00 0.64 0.64 99 1012.7
20260510032015 10 86 0.0 0.0 0.00 0.64 0.64 99 1012.7
20260510031510 10 86 0.0 0.0 0.00 0.64 0.64 99 1012.5
20260510031006 10 86 0.0 0.0 0.00 0.64 0.64 99 1012.4
20260510030502 10 86 0.0 0.0 0.00 0.64 0.64 99 1012.4
20260510025959 10 86 0.0 0.0 0.00 0.64 0.64 99 1012.6
20260510025456 10 86 0.0 0.0 0.00 0.64 0.64 99 1012.5
20260510024954 10 86 0.0 0.0 0.00 0.64 0.64 99 1012.5
20260510024450 10 39 0.0 0.0 0.00 0.64 0.64 99 1012.3
20260510023946 10 77 0.0 0.0 0.00 0.64 0.64 99 1012.4
20260510023442 11 104 0.0 0.0 0.00 0.64 0.64 99 1012.3
20260510022939 11 102 0.0 0.0 0.00 0.64 0.64 99 1012.4
20260510022438 11 94 0.0 0.0 0.00 0.64 0.64 99 1012.3
20260510021938 11 124 0.0 0.0 0.00 0.64 0.64 99 1012.2
20260510021436 11 124 0.0 0.0 0.00 0.64 0.64 99 1012.3
20260510020933 10 123 0.0 0.0 0.00 0.64 0.64 99 1012.1
20260510020433 11 124 0.0 0.0 0.00 0.64 0.64 99 1012.3
20260510015929 11 123 0.0 0.0 0.00 0.64 0.64 99 1012.5
20260510015425 11 123 0.0 0.0 0.00 0.64 0.64 99 1012.4
20260510014920 11 124 0.0 0.0 0.00 0.64 0.64 99 1012.1
20260510014418 11 152 0.0 0.0 0.00 0.64 0.64 99 1012.1
20260510013914 11 150 0.0 0.0 0.00 0.64 0.64 99 1012.0
20260510013409 11 150 0.0 0.0 0.00 0.64 0.64 99 1012.2
20260510012904 11 150 0.0 0.0 0.00 0.64 0.64 99 1012.2
20260510012400 12 164 0.0 1.6 0.00 0.64 0.64 99 1012.0
20260510011854 12 168 0.0 0.0 0.00 0.64 0.64 99 1011.7
20260510011350 12 142 0.0 0.0 0.00 0.64 0.64 99 1012.1
20260510010846 12 183 0.0 1.6 0.00 0.64 0.64 99 1012.0
20260510010344 12 137 0.0 0.0 0.00 0.64 0.64 99 1011.7
20260510005840 12 118 0.0 0.0 0.00 0.64 0.64 99 1011.9
20260510005337 12 170 0.0 0.0 0.00 0.64 0.64 99 1011.8
20260510004834 12 170 0.0 0.0 0.00 0.64 0.64 99 1011.7
20260510004332 12 206 0.0 1.6 0.00 0.64 0.64 99 1011.7
20260510003829 12 201 0.0 1.6 0.00 0.64 0.64 99 1011.5
20260510003326 12 152 0.0 0.0 0.00 0.64 0.64 99 1011.7
20260510002825 12 108 1.6 1.6 0.00 0.64 0.64 99 1011.7
20260510002322 12 162 0.0 0.0 0.00 0.64 0.64 99 1011.4
20260510001818 12 142 0.0 0.0 0.00 0.64 0.64 99 1011.6
20260510001317 12 155 0.0 0.0 0.00 0.64 0.64 99 1011.5
20260510000812 13 159 0.0 0.0 0.00 0.64 0.64 99 1011.4
20260510000311 13 109 1.6 3.2 0.00 0.64 0.64 99 1011.4
20260509235807 13 73 0.0 1.6 0.00 0.64 0.64 98 1011.2
20260509235306 13 162 0.0 0.0 0.00 0.64 0.64 98 1011.5
20260509234759 13 169 0.0 0.0 0.00 0.64 0.64 97 1011.5
20260509234256 13 159 0.0 0.0 0.00 0.64 0.64 97 1011.4
20260509233755 14 149 0.0 1.6 0.00 0.64 0.64 96 1011.3
20260509233252 14 144 1.6 1.6 0.00 0.64 0.64 96 1011.6
20260509232748 14 226 1.6 1.6 0.00 0.64 0.64 96 1011.3
20260509232245 14 217 1.6 1.6 0.00 0.64 0.64 96 1011.5
20260509231741 14 171 0.0 0.0 0.00 0.64 0.64 97 1011.5
20260509231238 14 163 0.0 0.0 0.00 0.64 0.64 96 1011.6
20260509230736 15 151 0.0 0.0 0.00 0.64 0.64 96 1011.6
20260509230233 15 189 1.6 1.6 0.00 0.64 0.64 95 1011.4
20260509225728 15 90 1.6 1.6 0.00 0.64 0.64 94 1011.4
20260509225224 15 180 1.6 1.6 0.00 0.64 0.64 93 1011.2
20260509224720 15 61 0.0 1.6 0.00 0.64 0.64 93 1011.5
20260509224217 15 216 0.0 0.0 0.00 0.64 0.64 94 1011.2
20260509223714 15 206 0.0 1.6 0.00 0.64 0.64 94 1011.2
20260509223211 15 182 1.6 1.6 0.00 0.64 0.64 95 1011.3
20260509222708 15 70 1.6 3.2 0.00 0.64 0.64 94 1011.5
20260509222203 15 208 0.0 0.0 0.00 0.64 0.64 95 1011.4
20260509221659 15 234 0.0 0.0 0.00 0.64 0.64 97 1011.5
20260509221155 14 174 0.0 0.0 0.00 0.64 0.64 98 1011.4
20260509220652 14 124 1.6 1.6 0.00 0.64 0.64 98 1011.4
20260509220148 14 215 0.0 0.0 0.00 0.64 0.64 99 1011.4
20260509215644 14 87 0.0 0.0 0.00 0.64 0.64 99 1011.4
20260509215141 14 202 0.0 0.0 0.00 0.64 0.64 99 1011.3
20260509214638 14 171 0.0 0.0 0.00 0.64 0.64 99 1011.2
20260509214134 13 105 0.0 0.0 0.00 0.64 0.64 99 1011.1
20260509213631 13 170 0.0 0.0 0.00 0.64 0.64 99 1011.4
20260509213127 13 88 1.6 1.6 0.00 0.64 0.64 99 1011.4
20260509212625 13 108 0.0 0.0 0.00 0.64 0.64 99 1011.3
20260509212122 13 156 0.0 0.0 0.00 0.64 0.64 99 1011.5
20260509211617 13 151 0.0 0.0 0.00 0.64 0.64 99 1011.2
20260509211114 13 150 0.0 1.6 0.00 0.64 0.64 99 1011.5
20260509210611 13 225 0.0 0.0 0.00 0.64 0.64 99 1011.5
20260509210108 13 280 1.6 1.6 0.00 0.64 0.64 99 1011.7
20260509205602 13 50 0.0 0.0 0.00 0.64 0.64 99 1011.5
20260509205057 13 302 3.2 3.2 0.00 0.64 0.64 99 1011.8
20260509204554 13 203 1.6 1.6 0.00 0.64 0.64 99 1011.8
20260509204050 14 218 0.0 0.0 0.00 0.64 0.64 99 1011.6
20260509203546 13 212 0.0 0.0 0.00 0.64 0.64 99 1011.6
20260509203045 13 176 0.0 1.6 0.00 0.64 0.64 99 1011.8
20260509202539 13 70 1.6 1.6 0.00 0.64 0.64 99 1011.8
20260509202034 13 282 0.0 1.6 0.00 0.64 0.64 99 1011.8
20260509201529 13 249 0.0 1.6 0.00 0.64 0.64 99 1011.7
20260509201022 12 49 3.2 3.2 0.00 0.64 0.64 99 1011.5
20260509200521 13 72 0.0 1.6 0.00 0.64 0.64 99 1011.7
20260509200019 12 66 1.6 1.6 0.00 0.64 0.64 99 1011.9
20260509195514 12 75 0.0 1.6 0.00 0.64 0.64 99 1011.8
20260509195013 12 76 0.0 0.0 0.18 0.64 0.64 99 1012.2
20260509194509 12 66 0.0 0.0 0.18 0.64 0.64 99 1012.1
20260509194007 12 140 0.0 0.0 0.00 0.61 0.61 99 1012.0
20260509193507 12 87 0.0 0.0 0.00 0.61 0.61 99 1012.1
20260509193004 12 175 0.0 0.0 0.00 0.61 0.61 99 1012.1
20260509192500 12 119 1.6 1.6 0.00 0.61 0.61 99 1012.4
20260509191954 13 179 0.0 0.0 0.00 0.61 0.61 99 1012.2
20260509191450 12 198 0.0 0.0 0.13 0.61 0.61 99 1012.3
20260509190946 12 237 0.0 1.6 0.30 0.61 0.61 99 1012.5
20260509190443 12 185 0.0 0.0 0.48 0.58 0.58 99 1012.8
20260509185941 12 186 0.0 0.0 0.48 0.56 0.56 99 1012.9
20260509185438 12 180 0.0 0.0 0.48 0.51 0.51 99 1012.8
20260509184935 12 231 0.0 0.0 0.43 0.48 0.48 99 1013.0
20260509184433 12 298 3.2 3.2 0.61 0.43 0.43 99 1013.1
20260509183929 12 320 1.6 1.6 0.61 0.41 0.41 99 1013.2
20260509183423 12 241 0.0 0.0 0.30 0.33 0.33 99 1013.2
20260509182920 12 276 1.6 1.6 0.13 0.28 0.28 99 1013.2
20260509182416 12 231 0.0 0.0 0.13 0.28 0.28 99 1013.2
20260509181914 12 205 0.0 0.0 0.18 0.25 0.25 99 1013.0
20260509181412 12 237 0.0 0.0 0.18 0.25 0.25 99 1013.0
20260509180908 12 292 1.6 1.6 0.00 0.23 0.23 99 1013.3
20260509180404 12 210 0.0 0.0 0.00 0.23 0.23 99 1013.2
20260509175901 12 288 1.6 1.6 0.18 0.23 0.23 99 1013.3
20260509175357 12 282 0.0 0.0 0.30 0.23 0.23 99 1013.3
20260509174854 12 269 3.2 3.2 0.30 0.20 0.20 99 1013.3
20260509174350 12 290 4.8 4.8 0.30 0.18 0.18 98 1013.2
20260509173846 12 236 4.8 4.8 0.13 0.15 0.15 98 1013.4
20260509173341 13 215 1.6 1.6 0.18 0.13 0.13 98 1013.1
20260509172837 13 284 0.0 1.6 0.18 0.13 0.13 98 1013.4
20260509172334 13 221 3.2 3.2 0.00 0.10 0.10 98 1013.2
20260509171830 13 229 1.6 3.2 0.00 0.10 0.10 98 1013.1
20260509171326 13 219 1.6 1.6 0.00 0.10 0.10 98 1012.9
20260509170823 13 258 1.6 1.6 0.00 0.10 0.10 98 1013.2
20260509170318 13 259 1.6 3.2 0.00 0.10 0.10 97 1012.9
20260509165818 13 186 0.0 0.0 0.13 0.10 0.10 97 1012.9
20260509165313 13 186 0.0 0.0 0.13 0.10 0.10 97 1012.6
20260509164809 13 191 0.0 0.0 0.00 0.08 0.08 96 1013.0
20260509164306 13 306 0.0 1.6 0.00 0.08 0.08 95 1012.8
20260509163802 13 201 1.6 1.6 0.00 0.08 0.08 95 1013.1
20260509163258 13 201 0.0 0.0 0.00 0.08 0.08 95 1013.1
20260509162758 13 222 3.2 3.2 0.00 0.08 0.08 94 1013.2
20260509162251 13 215 3.2 3.2 0.18 0.08 0.08 93 1013.1
20260509161747 13 274 1.6 3.2 0.13 0.05 0.05 93 1013.0
20260509161243 14 324 4.8 4.8 0.30 0.05 0.05 91 1013.2
20260509160739 14 298 4.8 4.8 0.18 0.03 0.03 90 1013.3
20260509160235 15 217 3.2 4.8 0.00 0.00 0.00 90 1013.4
20260509155730 15 291 4.8 4.8 0.00 0.00 0.00 89 1013.6
20260509155227 15 330 6.4 9.7 0.00 0.00 0.00 89 1013.7
20260509154723 15 271 3.2 3.2 0.00 0.00 0.00 89 1013.7
20260509154220 15 251 9.7 11.3 0.00 0.00 0.00 89 1013.6
20260509153718 15 232 3.2 3.2 0.00 0.00 0.00 89 1013.6
20260509153214 15 233 3.2 3.2 0.00 0.00 0.00 89 1013.8
20260509152710 15 231 1.6 3.2 0.00 0.00 0.00 89 1013.6
20260509152207 15 255 6.4 8.0 0.00 0.00 0.00 88 1013.8
20260509151704 15 99 0.0 1.6 0.00 0.00 0.00 87 1013.6
20260509151201 15 249 3.2 3.2 0.00 0.00 0.00 87 1013.7
20260509150659 15 293 6.4 8.0 0.00 0.00 0.00 87 1013.7
20260509150157 15 253 3.2 9.7 0.00 0.00 0.00 87 1013.7
20260509145652 15 259 0.0 0.0 0.00 0.00 0.00 87 1013.6
20260509145148 15 214 1.6 1.6 0.00 0.00 0.00 87 1013.5
20260509144644 15 229 1.6 4.8 0.00 0.00 0.00 88 1013.5
20260509144142 15 252 6.4 8.0 0.00 0.00 0.00 87 1013.3
20260509143639 15 222 1.6 1.6 0.00 0.00 0.00 87 1013.5
20260509143137 14 225 3.2 3.2 0.00 0.00 0.00 87 1013.5
20260509142632 15 196 1.6 3.2 0.00 0.00 0.00 87 1013.5
20260509142129 14 221 0.0 1.6 0.00 0.00 0.00 87 1013.6
20260509141624 14 207 4.8 4.8 0.00 0.00 0.00 86 1013.5
20260509141121 14 177 0.0 0.0 0.00 0.00 0.00 86 1013.2
20260509140618 14 244 6.4 8.0 0.00 0.00 0.00 86 1013.3
20260509140116 14 33 0.0 1.6 0.00 0.00 0.00 85 1013.2
20260509135613 15 230 4.8 8.0 0.00 0.00 0.00 85 1013.2
20260509135111 14 112 1.6 1.6 0.00 0.00 0.00 85 1013.0
20260509134607 14 223 4.8 4.8 0.00 0.00 0.00 84 1013.0
20260509134105 14 75 3.2 3.2 0.00 0.00 0.00 84 1013.1
20260509133601 14 221 0.0 1.6 0.00 0.00 0.00 85 1013.1
20260509133059 13 284 1.6 3.2 0.00 0.00 0.00 85 1013.3
20260509132557 13 195 0.0 1.6 0.00 0.00 0.00 85 1013.1
20260509132055 13 227 3.2 3.2 0.00 0.00 0.00 84 1013.4
20260509131551 13 223 0.0 0.0 0.00 0.00 0.00 85 1013.0
20260509131048 13 245 1.6 1.6 0.00 0.00 0.00 85 1013.0
20260509130544 13 137 0.0 0.0 0.00 0.00 0.00 85 1013.1
20260509130041 13 284 0.0 1.6 0.00 0.00 0.00 85 1013.1
20260509125537 13 285 1.6 3.2 0.00 0.00 0.00 86 1013.3
20260509125034 13 141 0.0 1.6 0.00 0.00 0.00 86 1013.3
20260509124530 12 118 1.6 1.6 0.00 0.00 0.00 87 1013.0
20260509124027 12 118 1.6 1.6 0.00 0.00 0.00 88 1013.4
20260509123525 12 127 0.0 0.0 0.00 0.00 0.00 88 1013.2
20260509123016 12 104 1.6 1.6 0.00 0.00 0.00 88 1013.2
20260509122512 12 127 0.0 0.0 0.00 0.00 0.00 87 1013.2
20260509122009 12 102 0.0 1.6 0.00 0.00 0.00 88 1013.2
20260509121506 12 126 0.0 0.0 0.00 0.00 0.00 88 1013.2
20260509121004 12 116 0.0 0.0 0.00 0.00 0.00 88 1013.1
20260509120502 12 136 0.0 0.0 0.00 0.00 0.00 88 1013.1
20260509115959 12 150 0.0 0.0 0.00 0.00 0.00 88 1013.2
20260509115456 12 131 0.0 0.0 0.00 0.00 0.00 88 1013.4
20260509114954 12 129 0.0 0.0 0.00 0.00 0.00 88 1013.1
20260509114452 12 127 0.0 0.0 0.00 0.00 0.00 88 1013.3
20260509113951 12 90 0.0 0.0 0.00 0.00 0.00 87 1013.2
20260509113448 12 138 0.0 0.0 0.00 0.00 0.00 87 1013.3
20260509112945 12 140 0.0 0.0 0.00 0.00 0.00 87 1013.0
20260509112442 12 61 0.0 0.0 0.00 0.00 0.00 87 1013.1
20260509111938 12 168 0.0 0.0 0.00 0.00 0.00 86 1013.0
20260509111436 12 217 0.0 0.0 0.00 0.00 0.00 85 1013.2
20260509110933 12 270 0.0 0.0 0.00 0.00 0.00 85 1013.1
20260509110429 12 178 0.0 0.0 0.00 0.00 0.00 85 1013.0
20260509105927 12 134 0.0 0.0 0.00 0.00 0.00 85 1012.9
20260509105426 12 197 0.0 1.6 0.00 0.00 0.00 84 1013.0
20260509104922 12 248 0.0 0.0 0.00 0.00 0.00 84 1013.1
20260509104419 12 130 0.0 1.6 0.00 0.00 0.00 84 1013.0
20260509103917 12 143 0.0 0.0 0.00 0.00 0.00 84 1013.0
20260509103413 12 128 0.0 1.6 0.00 0.00 0.00 84 1013.0
20260509102912 11 135 0.0 0.0 0.00 0.00 0.00 84 1012.8
20260509102409 11 137 0.0 0.0 0.00 0.00 0.00 86 1012.9
20260509101905 11 137 0.0 0.0 0.00 0.00 0.00 85 1012.8
20260509101401 11 136 0.0 0.0 0.00 0.00 0.00 85 1012.6
20260509100859 11 139 0.0 0.0 0.00 0.00 0.00 85 1012.8
20260509100356 11 136 0.0 0.0 0.00 0.00 0.00 85 1012.7
20260509095853 11 145 0.0 0.0 0.00 0.00 0.00 85 1012.9
20260509095351 11 144 0.0 0.0 0.00 0.00 0.00 85 1012.8
20260509094847 11 144 0.0 0.0 0.00 0.00 0.00 85 1012.9
20260509094344 12 144 0.0 1.6 0.00 0.00 0.00 84 1013.3